Location: Powder Track
(41.8531°N, 72.3584°W)
Time: 09:53:57
(UTC+00:00)

Vanguard 2 - All Passes

Search period start: 31 July 2021 00:00
Search period end: 10 August 2021 00:00
Orbit: 552 x 2937 km, 32.9° (Epoch: 30 July)

Date Brightness Start Highest point End Pass type
(mag) Time Alt. Az. Time Alt. Az. Time Alt. Az.
31 Jul - 10:09:40 10° SW 10:13:21 26° SSE 10:18:12 10° ESE daylight
31 Jul - 12:16:12 10° WSW 12:21:12 37° S 12:28:52 10° ESE daylight
31 Jul - 14:23:53 10° WSW 14:29:58 28° SSW 14:38:57 10° SE daylight
31 Jul - 16:35:14 10° SW 16:39:30 13° SSW 16:44:31 10° S daylight
01 Aug - 08:22:43 10° SSE 08:23:34 10° SSE 08:24:25 10° SE visible
01 Aug - 10:26:59 10° SW 10:30:50 29° SSE 10:36:01 10° ESE daylight
01 Aug - 12:33:51 10° WSW 12:38:49 34° S 12:46:22 10° SE daylight
01 Aug - 14:42:02 10° WSW 14:47:40 22° SSW 14:55:31 10° SSE daylight
02 Aug - 08:38:37 10° SSW 08:40:56 15° SSE 08:43:28 10° ESE visible
02 Aug - 10:44:25 10° WSW 10:48:21 31° S 10:53:44 10° ESE daylight
02 Aug - 12:51:35 10° WSW 12:56:28 29° S 13:03:41 10° SE daylight
02 Aug - 15:00:40 10° WSW 15:05:23 17° SSW 15:11:26 10° SSE daylight
03 Aug - 08:55:29 10° SSW 08:58:23 19° SSE 09:01:36 10° ESE visible
03 Aug - 11:01:58 10° WSW 11:05:55 31° S 11:11:22 10° ESE daylight
03 Aug - 13:09:29 10° WSW 13:14:08 24° SSW 13:20:42 10° SE daylight
03 Aug - 15:20:41 10° SW 15:23:07 11° SSW 15:25:49 10° S daylight
04 Aug - 09:12:41 10° SW 09:15:51 23° SSE 09:19:30 10° ESE visible
04 Aug - 11:19:35 10° WSW 11:23:31 28° S 11:28:52 10° SE daylight
04 Aug - 13:27:38 10° WSW 13:31:49 19° SSW 13:37:21 10° SSE daylight
05 Aug - 07:24:18 10° S 07:25:55 12° SSE 07:27:31 10° SE visible
05 Aug - 09:30:03 10° SW 09:33:23 25° S 09:37:14 10° ESE daylight
05 Aug - 11:37:20 10° WSW 11:41:07 25° S 11:46:12 10° SE daylight
05 Aug - 13:46:23 10° SW 13:49:30 14° SSW 13:53:16 10° S daylight
06 Aug - 07:40:49 10° SSW 07:43:25 16° SSE 07:45:56 10° SE visible
06 Aug - 09:47:34 10° SW 09:50:55 26° S 09:54:51 10° ESE daylight
06 Aug - 11:55:14 10° WSW 11:58:44 20° SSW 12:03:16 10° SE daylight
07 Aug - 07:57:52 10° SW 08:00:56 20° S 08:03:54 10° ESE visible
07 Aug - 10:05:11 10° WSW 10:08:28 24° S 10:12:21 10° SE daylight
07 Aug - 12:13:27 10° SW 12:16:22 15° SSW 12:19:55 10° SSE daylight
08 Aug - 06:08:46 10° S 06:10:48 12° SSE 06:12:40 10° SE night (unlit)
08 Aug - 08:15:11 10° SW 08:18:28 23° S 08:21:40 10° ESE visible
08 Aug - 10:22:56 10° WSW 10:26:03 21° S 10:29:42 10° SE daylight
08 Aug - 12:32:41 10° SSW 12:34:00 11° SSW 12:35:25 10° S daylight
09 Aug - 06:25:11 10° SSW 06:28:23 17° SSE 06:31:08 10° SE visible
09 Aug - 08:32:40 10° SW 08:36:01 24° S 08:39:18 10° SE visible
09 Aug - 10:40:51 10° SW 10:43:37 17° SSW 10:46:47 10° SSE daylight
